Янгикурган

Узбекистан     41°11′14″N   71°43′39″E
темп.,
°C
ветер,
м/с
пор.,
м/с
влажн.,
%
обл.,
%
осадки,
мм/ч
давл.,
гПа
погр.,
м
23 октября, сб
сб2323:00+5с227299 0.0 103641
02:00+4с3370100 0.0 103649
05:00+3с33675 0.0 103641
08:00+5с34530 0.0 1036130
11:00+10св23340 0.0 10331008
14:00+12св23260 0.0 10291191
17:00+10ссв22365 0.0 102926
20:00+7с33510 0.0 103041
24 октября, вс
вс2423:00+7с33500 0.0 102933
02:00+6ссв32470 0.0 102717
05:00+6ссв32440 0.0 102615
08:00+8ссв22380 0.0 102565
11:00+13юв22240 0.0 1021672
14:00+17вюв22180 0.0 10181011
17:00+14ю12250 0.0 101711
20:00+11с22340 0.0 101813
25 октября, пн
пн2523:00+10с33420 0.0 101817
02:00+9ссв22370 0.0 101712
05:00+8ссв22340 0.0 101712
08:00+10ссв22300 0.0 101838
11:00+16юв11190 0.0 1017613
14:00+18ю11160 0.0 1015993
17:00+15ююз11230 0.0 101511
20:00+12с22270 0.0 101715
26 октября, вт
вт2623:00+11с33320 0.0 101720
02:00+10с32270 0.0 101814
05:00+9с22270 0.0 101812
08:00+11ссв222680 0.0 102028
11:00+16юв1119100 0.0 1019533
14:00+17ююз1117100 0.0 1018860
17:00+14зюз112427 0.0 101911
20:00+12с22286 0.0 102013
27 октября, ср
ср2723:00+11ссв33365 0.0 102116
02:00+10с2236100 0.0 102113
05:00+10с2234100 0.0 102112
08:00+11ссв1133100 0.0 102115
11:00+15ю2225100 0.0 1021621
14:00+16ююз3325100 0.0 1020988
17:00+13ююз3433100 0.0 102272
20:00+11юв1156100 0.0 102425